When you browse on this site, cookies collect data to enhance your experience and personalize the content and advertising you see.
Visit our Privacy Policy to learn more. By continuing to use the site, you agree to this use of cookies and data.
  • en Suisse
  • Liste des pays
  • À 7 jours
  • Température de l'eau
  • Carte météo
  • Widgets météo
  • user-avatar
    Se connecter

    Météo par heure à Gomel

    Ce jour, 14 Octobre, Lundi

    Heure Température Précipitation Vent Pression Humidité
    00:00 +13°C° 0 mm 2 m/s 753 mmHg 91%
    01:00 +13°C° 0 mm 2 m/s 753 mmHg 91%
    02:00 +13°C° 0 mm 2 m/s 753 mmHg 93%
    03:00 +13°C° 0 mm 2 m/s 753 mmHg 93%
    04:00 +13°C° 0 mm 2 m/s 753 mmHg 93%
    05:00 +13°C° 0 mm 2 m/s 753 mmHg 93%
    06:00 +13°C° 0 mm 2 m/s 753 mmHg 91%
    07:00 +13°C° 0 mm 3 m/s 753 mmHg 88%
    08:00 +13°C° 0 mm 4 m/s 754 mmHg 83%
    09:00 +15°C° 0 mm 4 m/s 753 mmHg 76%
    10:00 +17°C° 0 mm 5 m/s 753 mmHg 69%
    11:00 +19°C° 0 mm 5 m/s 753 mmHg 61%
    12:00 +20°C° 0 mm 5 m/s 752 mmHg 58%
    13:00 +21°C° 0 mm 5 m/s 752 mmHg 55%
    14:00 +22°C° 0 mm 5 m/s 752 mmHg 51%
    15:00 +20°C° 0 mm 5 m/s 752 mmHg 55%
    16:00 +19°C° 0 mm 4 m/s 751 mmHg 59%
    17:00 +18°C° 0 mm 4 m/s 751 mmHg 63%
    18:00 +17°C° 0 mm 4 m/s 751 mmHg 65%
    19:00 +17°C° 0 mm 4 m/s 751 mmHg 67%
    20:00 +15°C° 0 mm 4 m/s 751 mmHg 68%
    21:00 +14°C° 0 mm 4 m/s 751 mmHg 70%
    22:00 +14°C° 0 mm 4 m/s 751 mmHg 72%
    23:00 +13°C° 0 mm 3 m/s 751 mmHg 73%

    Demain, 15 Octobre, Mardi

    Heure Température Précipitation Vent Pression Humidité
    00:00 +13°C° 0 mm 3 m/s 751 mmHg 77%
    01:00 +12°C° 0 mm 3 m/s 751 mmHg 81%
    02:00 +12°C° 0 mm 3 m/s 752 mmHg 84%
    03:00 +13°C° 0 mm 2 m/s 752 mmHg 87%
    04:00 +12°C° 0 mm 2 m/s 752 mmHg 90%
    05:00 +12°C° 0 mm 2 m/s 752 mmHg 92%
    06:00 +13°C° 0 mm 2 m/s 752 mmHg 91%
    07:00 +13°C° 0 mm 2 m/s 753 mmHg 90%
    08:00 +13°C° 0 mm 1 m/s 753 mmHg 89%
    09:00 +15°C° 0 mm 1 m/s 753 mmHg 80%
    10:00 +16°C° 0 mm 1 m/s 754 mmHg 71%
    11:00 +18°C° 0 mm 1 m/s 754 mmHg 63%
    12:00 +19°C° 0 mm 1 m/s 754 mmHg 59%
    13:00 +19°C° 0 mm 1 m/s 754 mmHg 55%
    14:00 +20°C° 0 mm 1 m/s 754 mmHg 52%
    15:00 +19°C° 0 mm 1 m/s 754 mmHg 57%
    16:00 +16°C° 0 mm 2 m/s 754 mmHg 62%
    17:00 +15°C° 0 mm 2 m/s 753 mmHg 67%
    18:00 +14°C° 0 mm 2 m/s 754 mmHg 70%
    19:00 +13°C° 0 mm 2 m/s 754 mmHg 74%
    20:00 +12°C° 0 mm 3 m/s 754 mmHg 77%
    21:00 +11°C° 0 mm 3 m/s 754 mmHg 79%
    22:00 +11°C° 0 mm 3 m/s 754 mmHg 81%
    23:00 +11°C° 0 mm 3 m/s 754 mmHg 82%

    Après-demain, 16 Octobre, Mercredi

    Heure Température Précipitation Vent Pression Humidité
    00:00 +10°C° 0 mm 3 m/s 755 mmHg 83%
    01:00 +10°C° 0 mm 3 m/s 755 mmHg 84%
    02:00 +10°C° 0 mm 3 m/s 755 mmHg 85%
    03:00 +10°C° 0 mm 3 m/s 755 mmHg 86%
    04:00 +10°C° 0 mm 3 m/s 754 mmHg 87%
    05:00 +10°C° 0 mm 3 m/s 754 mmHg 88%
    06:00 +10°C° 0 mm 3 m/s 754 mmHg 86%
    07:00 +11°C° 0 mm 4 m/s 754 mmHg 84%
    08:00 +12°C° 0 mm 4 m/s 754 mmHg 83%
    09:00 +13°C° 0 mm 4 m/s 754 mmHg 77%
    10:00 +15°C° 0 mm 4 m/s 754 mmHg 72%
    11:00 +17°C° 0 mm 5 m/s 754 mmHg 66%
    12:00 +19°C° 0 mm 5 m/s 754 mmHg 62%
    13:00 +20°C° 0 mm 5 m/s 753 mmHg 58%
    14:00 +21°C° 0 mm 5 m/s 753 mmHg 54%
    15:00 +19°C° 0 mm 5 m/s 752 mmHg 58%
    16:00 +18°C° 0 mm 4 m/s 752 mmHg 62%
    17:00 +17°C° 0 mm 4 m/s 752 mmHg 66%
    18:00 +15°C° 0 mm 4 m/s 752 mmHg 66%
    19:00 +14°C° 0 mm 4 m/s 752 mmHg 67%
    20:00 +14°C° 0 mm 4 m/s 752 mmHg 67%
    21:00 +13°C° 0 mm 4 m/s 752 mmHg 67%
    22:00 +13°C° 0 mm 4 m/s 752 mmHg 67%
    23:00 +12°C° 0 mm 4 m/s 752 mmHg 66%

    17 Octobre, Jeudi

    Heure Température Précipitation Vent Pression Humidité
    00:00 +12°C° 0 mm 4 m/s 752 mmHg 67%
    01:00 +11°C° 0 mm 3 m/s 752 mmHg 68%
    02:00 +11°C° 0 mm 3 m/s 752 mmHg 69%
    03:00 +11°C° 0 mm 3 m/s 752 mmHg 70%
    04:00 +10°C° 0 mm 3 m/s 752 mmHg 71%
    05:00 +10°C° 0 mm 2 m/s 752 mmHg 72%
    06:00 +12°C° 0 mm 2 m/s 752 mmHg 72%
    07:00 +12°C° 0 mm 2 m/s 752 mmHg 73%
    08:00 +13°C° 0 mm 2 m/s 752 mmHg 73%
    09:00 +14°C° 0 mm 2 m/s 752 mmHg 72%
    10:00 +16°C° 0 mm 3 m/s 752 mmHg 70%
    11:00 +17°C° 0 mm 3 m/s 752 mmHg 69%
    12:00 +18°C° 0 mm 3 m/s 752 mmHg 66%
    13:00 +19°C° 0 mm 4 m/s 751 mmHg 62%
    14:00 +20°C° 0 mm 4 m/s 751 mmHg 59%
    15:00 +18°C° 0 mm 4 m/s 751 mmHg 61%
    16:00 +17°C° 0 mm 3 m/s 751 mmHg 63%
    17:00 +14°C° 0 mm 3 m/s 751 mmHg 64%
    18:00 +14°C° 0 mm 3 m/s 751 mmHg 66%
    19:00 +13°C° 0 mm 3 m/s 752 mmHg 67%
    20:00 +12°C° 0 mm 3 m/s 752 mmHg 69%
    21:00 +12°C° 0 mm 3 m/s 752 mmHg 72%
    22:00 +11°C° 0 mm 3 m/s 752 mmHg 75%
    23:00 +11°C° 0 mm 3 m/s 752 mmHg 78%

    18 Octobre, Vendredi

    Heure Température Précipitation Vent Pression Humidité
    00:00 +10°C° 0 mm 2 m/s 753 mmHg 82%
    01:00 +10°C° 0 mm 2 m/s 753 mmHg 85%
    02:00 +10°C° 0 mm 2 m/s 753 mmHg 89%
    03:00 +9°C° 0 mm 2 m/s 753 mmHg 90%
    04:00 +9°C° 0 mm 2 m/s 753 mmHg 92%
    05:00 +9°C° 0 mm 2 m/s 754 mmHg 93%
    06:00 +9°C° 0 mm 2 m/s 754 mmHg 92%
    07:00 +10°C° 0 mm 2 m/s 754 mmHg 90%
    08:00 +10°C° 0 mm 2 m/s 754 mmHg 89%
    09:00 +12°C° 0 mm 2 m/s 754 mmHg 82%
    10:00 +13°C° 0 mm 2 m/s 755 mmHg 76%
    11:00 +15°C° 0 mm 2 m/s 755 mmHg 69%
    12:00 +15°C° 0 mm 2 m/s 755 mmHg 66%
    13:00 +16°C° 0 mm 2 m/s 755 mmHg 63%
    14:00 +16°C° 0 mm 2 m/s 755 mmHg 61%
    15:00 +15°C° 0 mm 2 m/s 754 mmHg 66%
    16:00 +14°C° 0 mm 1 m/s 754 mmHg 71%
    17:00 +13°C° 0 mm 1 m/s 754 mmHg 77%
    18:00 +12°C° 0 mm 1 m/s 755 mmHg 80%
    19:00 +11°C° 0 mm 1 m/s 755 mmHg 82%
    20:00 +11°C° 0 mm 1 m/s 755 mmHg 85%
    21:00 +11°C° 0 mm 1 m/s 755 mmHg 86%
    22:00 +10°C° 0 mm 1 m/s 755 mmHg 87%
    23:00 +10°C° 0 mm 1 m/s 755 mmHg 88%

    19 Octobre, Samedi

    Heure Température Précipitation Vent Pression Humidité
    00:00 +10°C° 0 mm 1 m/s 755 mmHg 89%
    01:00 +10°C° 0 mm 1 m/s 755 mmHg 90%
    02:00 +9°C° 0 mm 1 m/s 755 mmHg 90%
    03:00 +9°C° 0 mm 1 m/s 755 mmHg 91%
    04:00 +9°C° 0 mm 1 m/s 756 mmHg 92%
    05:00 +9°C° 0 mm 1 m/s 756 mmHg 92%
    06:00 +8°C° 0 mm 2 m/s 756 mmHg 90%
    07:00 +9°C° 0 mm 2 m/s 756 mmHg 89%
    08:00 +9°C° 0 mm 2 m/s 756 mmHg 87%
    09:00 +12°C° 0 mm 2 m/s 756 mmHg 80%
    10:00 +13°C° 0 mm 2 m/s 756 mmHg 73%
    11:00 +14°C° 0 mm 3 m/s 756 mmHg 66%
    12:00 +16°C° 0 mm 3 m/s 756 mmHg 64%
    13:00 +16°C° 0 mm 3 m/s 756 mmHg 62%
    14:00 +17°C° 0 mm 3 m/s 755 mmHg 59%
    15:00 +16°C° 0 mm 3 m/s 755 mmHg 64%
    16:00 +13°C° 0 mm 3 m/s 755 mmHg 69%
    17:00 +13°C° 0 mm 2 m/s 755 mmHg 74%
    18:00 +13°C° 0 mm 2 m/s 755 mmHg 76%
    19:00 +11°C° 0 mm 3 m/s 755 mmHg 78%
    20:00 +10°C° 0 mm 3 m/s 755 mmHg 80%
    21:00 +10°C° 0 mm 3 m/s 755 mmHg 81%
    22:00 +10°C° 0 mm 3 m/s 755 mmHg 81%
    23:00 +9°C° 0 mm 3 m/s 755 mmHg 82%
    Voir plus